Location: Melbourne
(37.8170°S, 144.9670°E)
Time: 22:51:49
(UTC+10:00)

ERBS - Pass Details

Date: 20 April 2018
Orbit: 419 x 438 km, 57.0° (Epoch: 20 May)

Event Time Altitude Azimuth Distance (km) Brightness Sun altitude
Rises 19:04:23 0° 263° (W) 2,433 7.9 -15.9°
Reaches altitude 10° 19:08:22 10° 218° (SW) 1,565 5.6 -16.7°
Maximum altitude 19:08:54 10° 209° (SSW) 1,550 5.5 -16.8°
Drops below altitude 10° 19:09:25 10° 201° (SSW) 1,565 5.4 -16.9°
Enters shadow 19:11:54 - 168° (SSE) 1,993 5.5 -17.4°
